RH
42 42 41 61 66 72 76 78 80 78 73 72 66 64 62 59 59 58 59 54 57 63 60 64 57 54 57 62 67 62 61 60
41 42 49 60 70 73 76 81 81 75 73 76 74 78 72 57 53 59 54 59 59 63 60 59 63 62 68 64 67 65 63 60
42 46 52 63 69 73 75 75 74 71 66 66 58 56 56 51 52 56 56 60 62 55 67 64 66 66 71 73 75 68 64 64
44 48 55 62 67 70 68 66 63 60 57 54 54 53 56 49 51 52 55 58 60 66 67 70 71 70 72 74 75 74 72 68
38 43 52 56 63 65 61 58 57 55 57 55 54 50 50 49 51 54 57 60 61 62 68 70 73 72 73 69 66 74 72 69
35 38 42 48 57 60 59 56 54 55 57 56 58 53 50 51 55 62 65 66 63 61 69 73 74 74 76 77 76 76 71 74
30 32 35 38 44 55 60 56 50 52 52 54 60 60 53 52 57 59 59 60 64 67 65 74 74 72 74 75 76 77 76 74
28 29 30 37 45 52 52 47 49 51 54 56 57 58 60 61 58 57 59 60 66 72 72 74 72 73 72 71 75 76 77 75
28 27 30 32 42 46 45 44 48 50 55 57 58 55 52 53 55 56 58 61 68 72 72 70 69 69 70 72 74 72 76 78
28 27 30 34 40 46 48 44 43 47 51 55 57 57 55 60 64 62 60 66 60 70 69 68 68 67 66 70 72 75 74 75
29 27 32 34 40 41 51 47 43 46 52 54 52 57 58 60 62 64 66 67 65 67 66 65 65 66 66 67 69 70 72 74
30 27 31 34 38 40 48 45 45 51 54 55 57 56 59 61 61 63 65 67 63 59 58 59 59 62 64 66 68 65 68 72
29 28 30 34 37 41 44 43 45 49 48 53 59 59 58 61 63 64 68 64 62 58 56 56 56 59 63 65 64 63 68 71
30 29 30 33 36 41 41 42 43 44 43 51 58 59 59 63 64 66 63 63 63 58 59 59 57 62 61 62 62 62 64 68
30 31 31 33 35 39 40 42 43 42 43 48 55 57 58 61 61 62 62 59 59 59 58 56 58 58 59 62 57 64 62 63
32 32 32 33 37 40 38 40 41 40 43 46 55 57 57 59 61 60 62 61 58 56 58 56 54 54 59 74 74 66 61 63
30 30 30 33 35 38 37 40 41 40 43 46 49 52 53 59 62 64 66 64 61 62 60 56 56 48 81 81 80 74 62 60
31 30 31 32 34 36 39 39 39 40 42 44 48 50 53 59 57 59 63 69 69 67 66 62 65 68 81 80 83 68 66 63
31 30 32 32 34 34 39 37 39 41 41 43 47 50 53 55 57 59 67 68 69 69 67 65 69 66 79 81 84 74 62 60
Wind_Speed
13 13 12 18 13 11 10 8 8 8 6 7 7 5 4 4 4 4 6 5 7 5 4 5 5 6 6 6 6 5 3 6
12 9 13 15 13 11 9 10 8 6 5 5 4 4 3 5 4 5 7 6 7 7 4 6 5 6 6 7 5 7 5 7
12 11 13 13 13 11 11 10 9 6 4 4 4 6 4 6 5 5 6 7 7 7 7 5 7 5 6 6 6 5 4 5
14 14 12 16 14 13 13 11 9 5 6 6 5 6 4 5 6 5 5 6 7 6 6 5 6 5 4 5 7 7 5 5
13 14 12 14 14 12 13 12 10 8 9 8 10 8 6 5 6 6 5 6 6 6 6 6 6 5 7 7 7 4 6 6
15 14 13 12 12 14 14 14 12 11 10 8 5 9 6 5 6 7 7 5 7 7 7 7 7 5 6 5 6 7 6 5
16 14 14 12 10 9 8 9 8 6 5 6 8 8 8 6 6 5 5 5 5 6 7 6 6 5 4 5 6 8 7 7
17 18 15 14 14 11 9 11 9 8 6 7 7 7 8 8 6 5 6 6 5 6 6 6 4 4 5 7 6 8 6 9
18 18 16 16 15 14 12 12 11 10 8 8 7 8 5 4 6 5 5 6 5 6 5 6 5 6 6 7 5 6 6 5
19 17 15 16 15 14 12 13 13 11 10 8 7 6 6 6 7 7 6 7 6 6 6 6 6 6 7 8 5 6 6 6
21 18 16 15 15 13 11 12 13 12 11 8 6 8 8 6 6 7 7 6 7 6 6 6 7 7 7 7 5 6 6 4
23 21 18 16 15 14 12 13 14 12 11 8 9 8 8 6 7 7 7 6 6 7 7 7 7 7 6 6 6 6 6 6
23 20 19 19 17 17 15 14 14 13 11 11 9 10 8 8 7 8 6 6 6 7 7 7 7 7 6 6 6 5 6 6
23 22 20 19 18 17 16 14 15 14 14 12 10 10 9 8 8 7 8 7 6 8 7 8 7 7 6 5 6 5 6 6
24 22 21 19 19 18 16 15 15 15 15 14 12 11 11 10 9 8 8 7 7 7 7 8 9 9 8 7 5 5 5 5
26 24 22 22 21 19 18 17 17 16 15 14 13 12 11 10 9 8 7 7 7 7 8 9 9 9 7 6 8 5 4 5
25 24 23 23 22 21 20 19 18 17 16 15 14 14 13 11 9 8 7 7 7 7 7 9 10 7 8 6 6 5 3 5
26 26 24 22 21 20 19 18 17 17 17 16 15 14 14 12 11 10 9 7 6 7 7 10 10 7 7 7 7 5 4 5
23 21 21 21 20 20 18 18 17 17 17 17 16 15 15 13 12 11 9 7 7 6 6 10 10 6 6 8 11 5 2 5
Wind_Direction
157 180 161 112 110 108 110 101 98 91 78 65 72 81 85 75 74 61 36 38 22 31 53 25 45 39 34 7 351 343 11 16
165 152 115 109 116 122 124 128 129 124 115 116 113 110 134 118 91 59 56 37 46 24 50 31 27 61 31 18 350 345 25 8
165 160 140 132 139 142 139 139 146 157 153 172 172 147 120 91 87 70 66 61 38 55 35 46 21 55 41 28 9 356 22 25
166 172 168 137 149 154 150 151 156 157 121 106 93 103 138 139 119 84 68 68 65 53 58 39 55 40 41 47 11 33 356 12
172 172 167 154 147 155 151 155 164 151 163 148 159 161 154 100 96 101 78 73 64 67 53 51 54 58 36 37 23 17 18 26
172 171 167 153 144 154 155 160 159 166 191 176 174 96 115 102 101 109 111 83 73 67 56 41 56 45 60 47 48 27 39 31
169 169 158 142 148 137 139 144 135 137 117 132 113 134 126 132 150 131 108 96 79 64 76 61 51 53 61 45 56 49 38 42
173 170 162 153 150 145 151 144 144 133 133 112 114 122 120 115 136 128 128 109 89 74 74 59 65 67 51 66 46 57 37 54
179 175 169 164 157 157 162 152 146 146 137 133 124 126 144 129 112 103 94 95 99 101 94 84 69 52 68 70 46 62 49 63
179 178 173 164 160 163 157 155 151 151 144 138 148 114 105 99 91 99 99 113 120 104 102 85 70 57 50 78 56 56 57 61
173 172 173 161 159 162 157 157 154 151 144 138 130 111 113 126 123 108 101 98 111 114 96 91 77 65 54 66 69 65 70 52
173 171 164 161 159 160 165 164 154 149 143 147 130 132 126 125 117 125 120 120 120 110 96 88 84 71 61 57 92 63 68 66
168 168 165 161 166 162 170 166 153 150 153 137 137 131 139 130 131 122 124 116 109 102 97 93 84 79 68 75 64 61 65 54
164 167 168 166 168 166 172 167 157 159 148 147 142 142 140 134 131 130 121 116 118 109 104 96 87 72 53 71 64 61 72 64
164 168 169 167 168 168 171 166 162 164 153 154 152 152 145 143 140 142 135 137 126 122 110 104 89 65 44 11 57 67 50 76
173 172 168 170 168 167 170 169 166 166 158 159 157 148 144 144 143 139 133 130 124 125 117 103 95 79 52 14 341 12 70 54
174 171 167 172 169 168 172 171 169 164 162 161 157 148 146 145 142 134 130 119 129 127 122 113 94 76 50 36 352 332 341 56
174 173 170 170 169 169 172 170 165 164 163 158 156 154 149 149 142 145 139 138 136 122 117 107 99 85 35 15 357 304 343 66
171 171 168 168 165 166 163 165 169 166 163 159 160 154 150 152 153 151 146 141 136 129 128 119 109 84 34 9 341 255 73 81